Location: ????????
(55.6333°N, 37.7000°E)
Time: 07:03:32
(UTC+00:00)

Cosmos 2227 Rocket - Pass Details

Date: 19 May 2025
Orbit: 837 x 845 km, 71.0° (Epoch: 23 June)

Event Time Altitude Azimuth Distance (km) Brightness Sun altitude
Exits shadow 23:08:13 - 158° (SSE) 3,042 4.7 -11.3°
Reaches altitude 10° 23:10:12 10° 147° (SSE) 2,450 4.3 -11.2°
Maximum altitude 23:14:13 21° 101° (E) 1,827 4.1 -11.0°
Drops below altitude 10° 23:18:15 10° 55° (NE) 2,465 5.7 -10.7°
Sets 23:21:16 0° 40° (NE) 3,406 7.2 -10.5°
